[keps] orb10316.amsat

Ray Hoad ray.hoad at mypbmail.com
Fri Nov 12 05:05:49 PST 2010


SB KEPS @ AMSAT  $ORB10316.O
Orbital Elements  10316.OSCAR

HR AMSAT ORBITAL ELEMENTS FOR OSCAR SATELLITES
FROM WA5QGD FORT WORTH,TX November 12, 2010
BID: ORB10316.O
TO ALL RADIO AMATEURS BT

Satellite: AO-07
Catalog number: 07530
Epoch time:      10315.60472271
Element set:     925
Inclination:      101.3980 deg
RA of node:       325.7321 deg
Eccentricity:    0.0012084
Arg of perigee:   346.4894 deg
Mean anomaly:     013.5856 deg
Mean motion:   12.53580217 rev/day
Decay rate:       -2.7e-07 rev/day^2
Epoch rev:           64692
Checksum:              285

Satellite: FO-29
Catalog number: 24278
Epoch time:      10315.56512026
Element set:     436
Inclination:      098.5189 deg
RA of node:       124.3685 deg
Eccentricity:    0.0351403
Arg of perigee:   101.5073 deg
Mean anomaly:     262.5737 deg
Mean motion:   13.52954549 rev/day
Decay rate:        1.1e-07 rev/day^2
Epoch rev:           70303
Checksum:              291

Satellite: SO-33
Catalog number: 25509
Epoch time:      10314.61630327
Element set:    0834
Inclination:      031.4314 deg
RA of node:       040.4442 deg
Eccentricity:    0.0353506
Arg of perigee:   130.3332 deg
Mean anomaly:     232.8720 deg
Mean motion:   14.28337170 rev/day
Decay rate:       1.83e-06 rev/day^2
Epoch rev:           62900
Checksum:              249

Satellite: RS-22
Catalog number: 27939
Epoch time:      10316.01423986
Element set:     714
Inclination:      097.8675 deg
RA of node:       175.0509 deg
Eccentricity:    0.0012877
Arg of perigee:   316.4871 deg
Mean anomaly:     043.5335 deg
Mean motion:   14.63474823 rev/day
Decay rate:       2.17e-06 rev/day^2
Epoch rev:           38057
Checksum:              322

Satellite: VO-52
Catalog number: 28650
Epoch time:      10315.20708944
Element set:     643
Inclination:      097.6729 deg
RA of node:       002.7589 deg
Eccentricity:    0.0027466
Arg of perigee:   153.3685 deg
Mean anomaly:     206.8921 deg
Mean motion:   14.81845392 rev/day
Decay rate:        5.7e-07 rev/day^2
Epoch rev:           29846
Checksum:              337

Satellite: SO-67
Catalog number: 35870
Epoch time:      10316.00379573
Element set:     279
Inclination:      097.3131 deg
RA of node:       001.0849 deg
Eccentricity:    0.0002070
Arg of perigee:   331.6905 deg
Mean anomaly:     112.5213 deg
Mean motion:   15.21166767 rev/day
Decay rate:       8.40e-06 rev/day^2
Epoch rev:            6392
Checksum:              280

Satellite: HO-68
Catalog number: 36122
Epoch time:      10316.00790131
Element set:     839
Inclination:      100.4499 deg
RA of node:       014.8140 deg
Eccentricity:    0.0007734
Arg of perigee:   003.3631 deg
Mean anomaly:     356.7521 deg
Mean motion:   13.16281271 rev/day
Decay rate:       -4.5e-07 rev/day^2
Epoch rev:            4366
Checksum:              263

/EX
SB KEPS @ AMSAT  $ORB10316.D
Orbital Elements  10316.MICROS

HR AMSAT ORBITAL ELEMENTS FOR THE MICROSATS
FROM WA5QGD FORT WORTH,TX November 12, 2010
BID: ORB10316.D
TO ALL RADIO AMATEURS BT

Satellite: UO-11
Catalog number: 14781
Epoch time:      10314.81741799
Element set:     388
Inclination:      098.0373 deg
RA of node:       006.8497 deg
Eccentricity:    0.0009881
Arg of perigee:   120.8480 deg
Mean anomaly:     239.3673 deg
Mean motion:   14.79855198 rev/day
Decay rate:        5.4e-07 rev/day^2
Epoch rev:           43349
Checksum:              343

Satellite: AO-16
Catalog number: 20439
Epoch time:      10314.79482016
Element set:    0041
Inclination:      098.3535 deg
RA of node:       267.0767 deg
Eccentricity:    0.0011899
Arg of perigee:   090.9450 deg
Mean anomaly:     269.3099 deg
Mean motion:   14.31881880 rev/day
Decay rate:        7.0e-08 rev/day^2
Epoch rev:           08636
Checksum:              321

Satellite: LO-19
Catalog number: 20442
Epoch time:      10314.83896404
Element set:    0952
Inclination:      098.3161 deg
RA of node:       272.3325 deg
Eccentricity:    0.0012914
Arg of perigee:   086.0104 deg
Mean anomaly:     274.2564 deg
Mean motion:   14.32111203 rev/day
Decay rate:        3.2e-07 rev/day^2
Epoch rev:           08654
Checksum:              264

Satellite: AO-27
Catalog number: 22825
Epoch time:      10314.81159532
Element set:    0672
Inclination:      098.5042 deg
RA of node:       259.0871 deg
Eccentricity:    0.0007869
Arg of perigee:   193.1970 deg
Mean anomaly:     166.9021 deg
Mean motion:   14.29315246 rev/day
Decay rate:        9.6e-07 rev/day^2
Epoch rev:           89299
Checksum:              331

Satellite: IO-26
Catalog number: 22826
Epoch time:      10314.85071924
Element set:    0412
Inclination:      098.4985 deg
RA of node:       259.6742 deg
Eccentricity:    0.0008741
Arg of perigee:   187.0652 deg
Mean anomaly:     173.0409 deg
Mean motion:   14.29572849 rev/day
Decay rate:      .00000000 rev/day^2
Epoch rev:           89311
Checksum:              307

Satellite: GO-32
Catalog number: 25397
Epoch time:      10315.10902807
Element set:     329
Inclination:      098.3175 deg
RA of node:       314.4962 deg
Eccentricity:    0.0001440
Arg of perigee:   150.3156 deg
Mean anomaly:     209.8095 deg
Mean motion:   14.23189248 rev/day
Decay rate:        2.6e-07 rev/day^2
Epoch rev:           64094
Checksum:              291

Satellite: NO-44
Catalog number: 26931
Epoch time:      10314.77038555
Element set:    0605
Inclination:      067.0514 deg
RA of node:       186.3043 deg
Eccentricity:    0.0005702
Arg of perigee:   273.7453 deg
Mean anomaly:     086.2972 deg
Mean motion:   14.29619606 rev/day
Decay rate:       -8.7e-07 rev/day^2
Epoch rev:           47570
Checksum:              310

Satellite: SO-50
Catalog number: 27607
Epoch time:      10315.40973516
Element set:     315
Inclination:      064.5591 deg
RA of node:       269.3216 deg
Eccentricity:    0.0047074
Arg of perigee:   017.4188 deg
Mean anomaly:     342.8542 deg
Mean motion:   14.71601564 rev/day
Decay rate:       2.34e-06 rev/day^2
Epoch rev:           42404
Checksum:              287

Satellite: CO-55
Catalog number: 27844
Epoch time:      10315.99015735
Element set:     976
Inclination:      098.7092 deg
RA of node:       322.8511 deg
Eccentricity:    0.0010436
Arg of perigee:   102.2505 deg
Mean anomaly:     257.9846 deg
Mean motion:   14.20744570 rev/day
Decay rate:        8.0e-07 rev/day^2
Epoch rev:           38207
Checksum:              306

Satellite: CO-57
Catalog number: 27848
Epoch time:      10315.97102851
Element set:     924
Inclination:      098.7148 deg
RA of node:       321.9572 deg
Eccentricity:    0.0010435
Arg of perigee:   107.2263 deg
Mean anomaly:     253.0056 deg
Mean motion:   14.20533601 rev/day
Decay rate:        8.4e-07 rev/day^2
Epoch rev:           38202
Checksum:              283

Satellite: AO-51
Catalog number: 28375
Epoch time:      10315.45536877
Element set:     821
Inclination:      098.0745 deg
RA of node:       300.6706 deg
Eccentricity:    0.0084890
Arg of perigee:   010.9685 deg
Mean anomaly:     349.3329 deg
Mean motion:   14.40708753 rev/day
Decay rate:        5.9e-07 rev/day^2
Epoch rev:           33471
Checksum:              325

Satellite: GENESAT1
Catalog number: 29655
Epoch time:      10216.61700559
Element set:     226
Inclination:      040.0059 deg
RA of node:       067.3006 deg
Eccentricity:    0.0005079
Arg of perigee:   297.8744 deg
Mean anomaly:     064.7087 deg
Mean motion:   16.44862838 rev/day
Decay rate:  1.0637092e-01 rev/day^2
Epoch rev:           20777
Checksum:              320

Satellite: CP3
Catalog number: 31129
Epoch time:      10316.06954641
Element set:     721
Inclination:      097.9247 deg
RA of node:       347.6099 deg
Eccentricity:    0.0103229
Arg of perigee:   134.6738 deg
Mean anomaly:     226.3000 deg
Mean motion:   14.52332816 rev/day
Decay rate:       3.84e-06 rev/day^2
Epoch rev:           18932
Checksum:              295

Satellite: CO-65
Catalog number: 32785
Epoch time:      10314.30157455
Element set:    0833
Inclination:      097.8806 deg
RA of node:       017.0753 deg
Eccentricity:    0.0015058
Arg of perigee:   165.3430 deg
Mean anomaly:     194.8204 deg
Mean motion:   14.81759199 rev/day
Decay rate:       5.72e-06 rev/day^2
Epoch rev:           13712
Checksum:              311

Satellite: KKS-1
Catalog number: 33493
Epoch time:      10316.00575199
Element set:      29
Inclination:      098.1022 deg
RA of node:       076.9175 deg
Eccentricity:    0.0020409
Arg of perigee:   026.6190 deg
Mean anomaly:     333.6061 deg
Mean motion:   14.81189027 rev/day
Decay rate:       6.63e-06 rev/day^2
Epoch rev:            9736
Checksum:              290

Satellite: SOHLA-1
Catalog number: 33496
Epoch time:      10315.37292242
Element set:     252
Inclination:      098.0686 deg
RA of node:       062.6285 deg
Eccentricity:    0.0007673
Arg of perigee:   093.6322 deg
Mean anomaly:     266.5756 deg
Mean motion:   14.69531518 rev/day
Decay rate:       1.64e-06 rev/day^2
Epoch rev:            9649
Checksum:              319

Satellite: TISAT-1
Catalog number: 36799
Epoch time:      10316.03277680
Element set:     303
Inclination:      098.1318 deg
RA of node:       016.8724 deg
Eccentricity:    0.0014248
Arg of perigee:   257.6872 deg
Mean anomaly:     102.2733 deg
Mean motion:   14.80224668 rev/day
Decay rate:       4.73e-06 rev/day^2
Epoch rev:            1818
Checksum:              300

Satellite: STUDSAT
Catalog number: 36801
Epoch time:      10316.21138011
Element set:      90
Inclination:      098.1348 deg
RA of node:       016.9504 deg
Eccentricity:    0.0013052
Arg of perigee:   246.8263 deg
Mean anomaly:     113.1575 deg
Mean motion:   14.79785910 rev/day
Decay rate:      1.273e-05 rev/day^2
Epoch rev:            1820
Checksum:              261

/EX
SB KEPS @ AMSAT  $ORB10316.W
Orbital Elements  10316.WEATHER

HR AMSAT ORBITAL ELEMENTS FOR WEATHER SATELLITES
FROM WA5QGD FORT WORTH,TX November 12, 2010
BID: ORB10316.W
TO ALL RADIO AMATEURS BT

